Weather in Shilovskiy

Russia / Oryol Oblast     52°58′53″N   35°58′32″E
temp.,
°C
wind,
m/s
gust,
m/s
humid.,
%
clouds,
%
prec.,
mm/h
press.,
hPa
HPBL,
m
21 april, wed
wed2100:00+3nne4797100 0.1 1008413
03:00+3n4696100 0.3 1006444
06:00+2nw3693100 0.0 1006521
09:00+3wnw3593100 0.1 1008645
12:00+5w4579100 0.1 1009859
15:00+6wsw5672100 0.1 10101054
18:00+6wsw3676100 0.1 1011701
21:00+4ssw4793100 0.5 1014357
22 april, thu
thu2200:00+4ssw5993100 0.0 1014388
03:00+4s499199 0.0 1015292
06:00+3ssw4109691 0.2 1016277
09:00+7s698297 0.7 1016386
12:00+12ssw796529 0.1 10161194
15:00+15ssw8105525 1.3 10161679
18:00+13ssw7116699 0.9 1016898
21:00+9ssw51384100 1.8 1017319
23 april, fri
fri2300:00+9s5138219 0.1 1016307
03:00+8s6158071 0.2 1016358
06:00+8s6158185 0.1 1015413
09:00+12s8137021 0.1 1015977
12:00+15ssw8125740 0.1 10141632
15:00+13sw7117081 2.1 10131363
18:00+7nw5588100 3.8 1013310
21:00+5nnw3591100 7.4 1013580
24 april, sat
sat2400:00+5wnw5894100 3.1 1013719
03:00+4wsw3791100 3.3 1012373
06:00+3w49899 0.1 1012319
09:00+6wnw467027 0.1 1012810
12:00+8w565198 0.1 10121842
15:00+9w664494 0.1 10112117
18:00+7wnw6860100 0.4 1012979
21:00+4w498065 0.8 1013298
25 april, sun
sun2500:00+2wsw49825 0.0 1014253
03:00+1wsw4108618 0.0 1014278
06:00+1wsw51188100 0.0 1014425
09:00+4wsw710635 0.1 10141327
12:00+5wsw81160100 0.7 10141906
15:00+7w81044100 0.8 10142320
18:00+6wsw686215 0.3 10141301
21:00+2wsw37793 0.3 1015150